XML Sitemap

This is a XML Sitemap which is supposed to be processed by search engines which follow the XML Sitemap standard like Ask.com, Bing, Google and Yahoo.
It was generated using the Blogging-Software WordPress and the Google Sitemap Generator Plugin by Arne Brachhold.
You can find more information about XML sitemaps on sitemaps.org and Google's list of sitemap programs.

URLPriorityChange frequencyLast modified (GMT)
http://letsdiscgolf.com/2015/10/31/146438/wolf-hill-dgc-in-oceanport-nj/20%Monthly2015-10-31 19:45
http://letsdiscgolf.com/2015/10/31/146435/quail-ridge-in-wentzville-mo-6/20%Monthly2015-10-31 18:35
http://letsdiscgolf.com/2015/10/31/146432/gateway-park-west-in-fort-worth-tx-8/20%Monthly2015-10-31 16:02
http://letsdiscgolf.com/2015/10/31/146427/albert-oakland-park-front-course-in-columbia-mo-4/20%Monthly2015-10-31 15:29
http://letsdiscgolf.com/2015/10/31/146429/wilbur-young-park-dgc-in-blue-springs-mo-4/20%Monthly2015-10-31 14:42
http://letsdiscgolf.com/2015/10/31/146422/solomon-city-park-in-solomon-ks-2/20%Monthly2015-10-31 13:57
http://letsdiscgolf.com/2015/10/31/148045/solomon-city-park-in-solomon-ks-2-3/20%Monthly2015-10-31 13:57
http://letsdiscgolf.com/2015/10/31/148044/solomon-city-park-in-solomon-ks-2-2/20%Monthly2015-10-31 13:57
http://letsdiscgolf.com/2015/10/31/146420/meadowcreek-gardens-dgc-in-charlottesville-va-3/20%Monthly2015-10-31 11:43
http://letsdiscgolf.com/2015/10/31/146415/tendick-nature-park-in-saukville-wi-3/20%Monthly2015-10-31 09:05
http://letsdiscgolf.com/2015/10/31/146417/whitehall-township-dgc-in-whitehall-mi-3/20%Monthly2015-10-31 08:47
http://letsdiscgolf.com/2015/10/31/146411/root-river-parkway-dgc-in-greendale-wi-10/20%Monthly2015-10-31 08:18
http://letsdiscgolf.com/2015/10/31/146413/heritage-trails-county-park-in-slinger-wi-4/20%Monthly2015-10-31 07:35
http://letsdiscgolf.com/2015/10/31/146408/timberstone-dgc-in-stoneham-me/20%Monthly2015-10-31 04:26
http://letsdiscgolf.com/2015/10/31/146402/10302015-phillips-park-in-pittsburgh-pa-deleted-event/20%Monthly2015-10-31 01:51
http://letsdiscgolf.com/2015/10/31/146404/10302015-samsung-austin-semiconductor-in-austin-tx-new-link-added/20%Monthly2015-12-01 18:38
http://letsdiscgolf.com/2015/10/30/146394/lakewood-park-south-9-in-salina-ks-2/20%Monthly2015-10-30 23:00
http://letsdiscgolf.com/2015/10/30/146396/lakewood-park-north-9-in-salina-ks-2/20%Monthly2015-10-30 22:33
http://letsdiscgolf.com/2015/10/30/146391/tipton-city-park-in-tipton-ia/20%Monthly2015-10-30 21:17
http://letsdiscgolf.com/2015/10/30/146374/smuttynose-brewing-dgc-in-hampton-nh-3/20%Monthly2015-10-30 20:45
http://letsdiscgolf.com/2015/10/30/146376/hillcrest-dgc-in-bonshaw-pe-3/20%Monthly2015-10-30 20:29
http://letsdiscgolf.com/2015/10/30/146378/dineen-park-in-milwaukee-wi-5/20%Monthly2015-10-30 20:21
http://letsdiscgolf.com/2015/10/30/146380/west-guth-park-in-corpus-christi-tx-2/20%Monthly2015-10-30 20:18
http://letsdiscgolf.com/2015/10/30/146382/9-springs-golf-course-in-fitchburg-wi/20%Monthly2015-10-30 19:43
http://letsdiscgolf.com/2015/10/30/146384/walnut-ridge-in-johnston-ia/20%Monthly2015-10-30 19:37
http://letsdiscgolf.com/2015/10/30/146386/interstate-battery-dgc-in-urbandale-ia-3/20%Monthly2015-10-30 19:33
http://letsdiscgolf.com/2015/10/30/146370/wilson-dgc-in-wilson-ks/20%Monthly2015-10-30 18:01
http://letsdiscgolf.com/2015/10/30/146365/10302015-parked-drives-in-warrenton-mo-hole-info-updated/20%Monthly2016-08-07 16:55
http://letsdiscgolf.com/2015/10/30/146372/rolling-hills-park-in-hays-ks-4/20%Monthly2015-10-30 17:44
http://letsdiscgolf.com/2015/10/30/146363/scout-park-in-wakeeney-ks-2/20%Monthly2015-10-30 16:38
http://letsdiscgolf.com/2015/10/30/146361/annie-oakley-park-in-oakley-ks-2/20%Monthly2015-10-30 15:46
http://letsdiscgolf.com/2015/10/30/146352/adams-hollow-in-brighton-co-3/20%Monthly2015-10-30 14:46
http://letsdiscgolf.com/2015/10/30/146348/mile-bluff-dgc-in-mauston-wi/20%Monthly2015-10-30 05:14
http://letsdiscgolf.com/2015/10/30/146346/riverside-park-in-victoria-tx/20%Monthly2015-10-30 03:13
http://letsdiscgolf.com/2015/10/30/146341/villa-high-park-in-colby-ks-3/20%Monthly2015-10-30 00:22
http://letsdiscgolf.com/2015/10/29/146333/nottingham-park-dgc-in-avon-co-3/20%Monthly2015-10-29 23:20
http://letsdiscgolf.com/2015/10/29/146335/stoney-ridge-dgc-in-silt-co-2/20%Monthly2015-10-29 22:51
http://letsdiscgolf.com/2015/10/29/146331/10292015-university-of-central-florida-in-orlando-fl-new-photos-uploaded/20%Monthly2016-10-02 00:53
http://letsdiscgolf.com/2015/10/29/146328/uw-campus-platteville-in-platteville-wi-5/20%Monthly2015-10-29 21:37
http://letsdiscgolf.com/2015/10/29/146520/new-dga-caps-hoodies/20%Monthly2015-10-29 20:59
http://letsdiscgolf.com/2015/10/29/146318/10292015-highland-hills-park-in-fort-thomas-ky-course-info-updated/20%Monthly2016-06-17 06:32
http://letsdiscgolf.com/2015/10/29/146321/10292015-karl-von-coldewey-dgc-in-milford-oh-course-info-updated/20%Monthly2016-08-25 17:09
http://letsdiscgolf.com/2015/10/29/146326/new-and-improved-junior-divisions-for-2016/20%Monthly2015-10-29 16:17
http://letsdiscgolf.com/2015/10/29/146313/hunter-farm-in-grove-city-pa-5/20%Monthly2015-10-29 16:07
http://letsdiscgolf.com/2015/10/29/146298/johnny-roberts-dgc-in-arvada-co-13/20%Monthly2015-10-29 15:42
http://letsdiscgolf.com/2015/10/29/146300/mojave-narrows-dgc-in-victorville-ca/20%Monthly2015-10-29 15:32
http://letsdiscgolf.com/2015/10/29/146302/university-of-n-colorado-in-greeley-co-5/20%Monthly2015-10-29 15:15
http://letsdiscgolf.com/2015/10/29/146304/prince-solms-park-in-new-braunfels-tx-4/20%Monthly2015-10-29 15:08
http://letsdiscgolf.com/2015/10/29/146290/tjader-acres-dgc-in-siren-wi/20%Monthly2015-10-29 10:57
http://letsdiscgolf.com/2015/10/29/146285/10292015-loyal-west-side-park-in-loyal-wi-course-info-updated/20%Monthly2015-10-29 14:13
http://letsdiscgolf.com/2015/10/29/146288/10292015-wildwood-park-in-marshfield-wi-course-info-updated/20%Monthly2015-10-29 06:06
http://letsdiscgolf.com/2015/10/29/146279/10292015-pittsville-riverside-park-in-pittsville-wi-hole-info-updated/20%Monthly2016-08-15 22:39
http://letsdiscgolf.com/2015/10/29/146276/lions-park-in-temple-tx-2/20%Monthly2015-10-29 04:13
http://letsdiscgolf.com/2015/10/29/146273/inskip-park-junior-dgc-in-knoxville-tn/20%Monthly2015-10-29 01:54
http://letsdiscgolf.com/2015/10/29/146253/arts-park-in-springville-ut-3/20%Monthly2015-10-29 00:33
http://letsdiscgolf.com/2015/10/29/146255/dexter-park-dgc-in-dexter-or-8/20%Monthly2015-10-29 00:17
http://letsdiscgolf.com/2015/10/29/146259/10282015-tjader-acres-disc-golf-course-in-siren-wi-hole-info-updated/20%Monthly2015-11-16 02:49
http://letsdiscgolf.com/2015/10/29/192340/10282015-tjader-acres-disc-golf-course-in-siren-wi-hole-info-updated-2/20%Monthly2015-10-29 00:04
http://letsdiscgolf.com/2015/10/28/146257/queen-creek-dgc-in-queen-creek-az/20%Monthly2015-10-28 23:31
http://letsdiscgolf.com/2015/10/28/146263/10282015-dawson-creek-disc-golf-course-in-dawson-creek-bc-new-video-added/20%Monthly2016-12-03 04:30
http://letsdiscgolf.com/2015/10/28/146249/live-oak-park-gold-in-ingleside-tx-2/20%Monthly2015-10-28 21:17
http://letsdiscgolf.com/2015/10/28/146245/live-oak-park-red-in-ingleside-tx-5/20%Monthly2015-10-28 19:59
http://letsdiscgolf.com/2015/10/28/146242/ostpark-bad-wrishofen-in-bad-wrishofen-germany/20%Monthly2015-10-28 16:27
http://letsdiscgolf.com/2015/10/28/146237/10282015-firehouse-park-disc-golf-course-in-town-of-sheboygan-wi-hole-info-updated/20%Monthly2015-10-28 13:43
http://letsdiscgolf.com/2015/10/28/146232/10282015-emerald-hills-in-redwood-city-ca-course-info-updated/20%Monthly2017-03-08 22:40
http://letsdiscgolf.com/2015/10/28/146228/emerald-hills-in-redwood-city-ca/20%Monthly2015-10-28 05:50
http://letsdiscgolf.com/2015/10/28/146230/visionquest-in-cedar-mn-41/20%Monthly2015-10-28 05:17
http://letsdiscgolf.com/2015/10/28/146225/lookup-park-in-henrietta-ny-3/20%Monthly2015-10-28 02:56
http://letsdiscgolf.com/2015/10/28/146223/the-woodlands-dgc-in-gates-ny-4/20%Monthly2015-10-28 02:24
http://letsdiscgolf.com/2015/10/27/146218/10272015-clearwater-dgc-in-clearwater-bc-course-info-updated/20%Monthly2015-10-27 23:45
http://letsdiscgolf.com/2015/10/27/146216/devils-creek-dgc-in-southfield-mi/20%Monthly2015-10-27 22:51
http://letsdiscgolf.com/2015/10/27/146209/adams-hollow-in-brighton-co-2/20%Monthly2015-10-27 20:48
http://letsdiscgolf.com/2015/10/27/146211/springfield-elementary-school-in-fort-mill-sc-2/20%Monthly2015-10-27 20:02
http://letsdiscgolf.com/2015/10/27/146203/10272015-devils-creek-dgc-in-southfield-mi-new-photos-uploaded/20%Monthly2015-11-17 02:36
http://letsdiscgolf.com/2015/10/27/146205/10272015-redwood-meadows-in-redwood-meadows-ab-course-info-updated/20%Monthly2015-10-27 20:33
http://letsdiscgolf.com/2015/10/27/146201/porter-on-the-lake-park-in-youngstown-ny-2/20%Monthly2015-10-27 18:37
http://letsdiscgolf.com/2015/10/27/146190/fruita-middle-school-dgc-in-fruita-co/20%Monthly2015-10-27 16:59
http://letsdiscgolf.com/2015/10/27/146192/stoney-creek-park-dgc-in-goldsboro-nc-7/20%Monthly2015-10-27 16:39
http://letsdiscgolf.com/2015/10/27/146194/wildlife-prairie-state-park-dgc-in-hanna-city-peoria-il/20%Monthly2015-10-27 16:38
http://letsdiscgolf.com/2015/10/27/146196/little-salt-wash-park-in-fruita-co-2/20%Monthly2015-10-27 16:38
http://letsdiscgolf.com/2015/10/27/146188/10272015-osprey-dgc-benton-beach-in-rice-mn-course-info-updated/20%Monthly2015-10-27 16:03
http://letsdiscgolf.com/2015/10/27/146185/visionquest-in-cedar-mn-40/20%Monthly2015-10-27 15:06
http://letsdiscgolf.com/2015/10/27/146180/idlewild-in-burlington-ky-18/20%Monthly2015-10-27 14:16
http://letsdiscgolf.com/2015/10/27/146182/picnic-island-dgc-in-tampa-fl-31/20%Monthly2015-10-27 13:49
http://letsdiscgolf.com/2015/10/27/146174/10262015-moser-park-in-new-haven-in-hole-info-updated/20%Monthly2017-02-16 05:26
http://letsdiscgolf.com/2015/10/27/146176/10262015-ossian-dgc-in-ossian-in-course-info-updated/20%Monthly2015-12-14 01:46
http://letsdiscgolf.com/2015/10/27/146172/usu-eastern-dgc-in-price-ut-3/20%Monthly2015-10-27 00:09
http://letsdiscgolf.com/2015/10/26/146168/betty-g-ross-park-in-lincolnton-nc-2/20%Monthly2015-10-26 22:12
http://letsdiscgolf.com/2015/10/26/146170/north-asheboro-park-dgc-in-asheboro-nc-3/20%Monthly2015-10-26 21:23
http://letsdiscgolf.com/2015/10/26/146156/brent-baca-memorial-in-albuquerque-nm-6/20%Monthly2015-10-26 20:17
http://letsdiscgolf.com/2015/10/26/146530/good-neighbor-open-disc-golf-tournament/20%Monthly2015-10-26 20:02
http://letsdiscgolf.com/2015/10/26/146158/the-dock-in-aurora-co-3/20%Monthly2015-10-26 19:44
http://letsdiscgolf.com/2015/10/26/146160/waahila-ridge-quothila-monsterquot-in-honolulu-hi-2/20%Monthly2015-10-26 19:33
http://letsdiscgolf.com/2015/10/26/146150/roosevelt-park-in-albuquerque-nm-6/20%Monthly2015-10-26 19:28
http://letsdiscgolf.com/2015/10/26/146152/mosquito-lake-state-park-in-cortland-oh-2/20%Monthly2015-10-26 19:22
http://letsdiscgolf.com/2015/10/26/146154/the-oaks-in-mokena-il-5/20%Monthly2015-10-26 18:39
http://letsdiscgolf.com/2015/10/26/146147/eagle-rock-dgc-in-mapleton-city-ut-2/20%Monthly2015-10-26 17:10
http://letsdiscgolf.com/2015/10/26/146140/oakland-middle-school-dgc-in-murfreesboro-tn/20%Monthly2015-10-26 14:40
http://letsdiscgolf.com/2015/10/26/146142/arts-park-in-springville-ut-2/20%Monthly2015-10-26 14:28
http://letsdiscgolf.com/2015/10/26/146144/scera-park-in-orem-ut-7/20%Monthly2015-10-26 13:49
http://letsdiscgolf.com/2015/10/26/146138/dry-creek-trail-park-in-lehi-ut-4/20%Monthly2015-10-26 13:17
http://letsdiscgolf.com/2015/10/26/146132/black-bear-park-in-hoffman-estates-il-3/20%Monthly2015-10-26 03:09
http://letsdiscgolf.com/2015/10/26/146118/conejo-valley-ymca-in-thousand-oaks-ca/20%Monthly2015-10-26 01:46
http://letsdiscgolf.com/2015/10/26/146120/sontag-dgc-in-rocky-mount-va-5/20%Monthly2015-10-26 01:24
http://letsdiscgolf.com/2015/10/25/146112/cypress-point-park-in-tampa-fl-26/20%Monthly2015-10-25 23:18
http://letsdiscgolf.com/2015/10/25/146114/u-c-santa-cruz-in-santa-cruz-ca/20%Monthly2015-10-25 23:13
http://letsdiscgolf.com/2015/10/25/146116/picnic-island-dgc-in-tampa-fl-30/20%Monthly2015-10-25 23:07
http://letsdiscgolf.com/2015/10/25/146108/22nd-st-park-dgc-in-tampa-fl-12/20%Monthly2015-10-25 22:58
http://letsdiscgolf.com/2015/10/25/146099/the-dock-in-aurora-co-2/20%Monthly2015-10-25 20:37
http://letsdiscgolf.com/2015/10/25/146101/rollin-ridge-in-reedsville-wi-59/20%Monthly2015-10-25 19:47
http://letsdiscgolf.com/2015/10/25/146094/knob-hill-park-in-wexford-pa-6/20%Monthly2015-10-25 19:15
http://letsdiscgolf.com/2015/10/25/146096/university-of-utah-in-salt-lake-city-ut-3/20%Monthly2015-10-25 18:26
http://letsdiscgolf.com/2015/10/25/146090/armfield-civic-center-in-pilot-mountain-nc-12/20%Monthly2015-10-25 17:41
http://letsdiscgolf.com/2015/10/25/146092/cache-la-poudre-jr-high-dgc-in-la-porte-co-4/20%Monthly2015-10-25 17:36
http://letsdiscgolf.com/2015/10/25/146080/white-birch-park-in-st-louis-hazelwood-mo-4/20%Monthly2015-10-25 15:32
http://letsdiscgolf.com/2015/10/25/146082/roxana-city-park-in-roxana-il/20%Monthly2015-10-25 15:22
http://letsdiscgolf.com/2015/10/25/146084/siu-edwardsville-dgc-in-edwardsville-il/20%Monthly2015-10-25 15:12
http://letsdiscgolf.com/2015/10/25/146086/hammon-grove-park-in-browns-valley-ca-4/20%Monthly2015-10-25 14:56
http://letsdiscgolf.com/2015/10/25/146088/humboldt-river-dgc-in-elko-nv-6/20%Monthly2015-10-25 14:47
http://letsdiscgolf.com/2015/10/25/146075/stansbury-park-in-stansbury-park-ut-4/20%Monthly2015-10-25 14:23
http://letsdiscgolf.com/2015/10/25/146071/dave-simpson-memorial-dgc-in-rittman-oh-3/20%Monthly2015-10-25 12:19
http://letsdiscgolf.com/2015/10/25/146073/shane-kelly-park-in-oviedo-fl/20%Monthly2015-10-25 12:19
http://letsdiscgolf.com/2015/10/25/146063/hidden-creek-dgc-in-crown-point-in/20%Monthly2015-10-25 04:42
http://letsdiscgolf.com/2015/10/25/146068/10242015-pioneer-park-in-brandon-sd-hole-info-updated/20%Monthly2015-10-25 04:39
http://letsdiscgolf.com/2015/10/25/146065/rock-springs-dgc-in-rock-springs-wy/20%Monthly2015-10-25 03:57
http://letsdiscgolf.com/2015/10/24/146059/grandview-park-in-des-moines-ia-7/20%Monthly2015-10-24 23:46
http://letsdiscgolf.com/2015/10/24/146056/canaan-riverbend-dgc-in-rock-hill-sc-4/20%Monthly2015-10-24 21:01
http://letsdiscgolf.com/2015/10/24/146052/nevin-park-dgc-in-charlotte-nc-13/20%Monthly2015-10-24 20:27
http://letsdiscgolf.com/2015/10/24/146054/azalea-state-park-in-brookings-or/20%Monthly2015-10-24 19:01
http://letsdiscgolf.com/2015/10/24/146043/revierpark-wischlingen-in-dortmund-germany-3/20%Monthly2015-10-24 18:27
http://letsdiscgolf.com/2015/10/24/146045/doris-leeper-dgc-in-new-smyrna-fl-4/20%Monthly2015-10-24 17:57
http://letsdiscgolf.com/2015/10/24/146047/bishop-park-in-bryant-ar-2/20%Monthly2015-10-24 17:56
http://letsdiscgolf.com/2015/10/24/146039/rollin-ridge-in-reedsville-wi-58/20%Monthly2015-10-24 16:56
http://letsdiscgolf.com/2015/10/24/146037/carrollton-park-dgc-in-bridgeton-st-louis-mo-12/20%Monthly2015-10-24 15:47
http://letsdiscgolf.com/2015/10/24/146034/10242015-waldron-park-dgc-in-corpus-christi-tx-course-info-updated/20%Monthly2015-10-24 05:48
http://letsdiscgolf.com/2015/10/24/146029/adams-hollow-in-brighton-co/20%Monthly2015-10-24 05:31
http://letsdiscgolf.com/2015/10/24/146031/morris-frank-park-dgc-in-lufkin-tx-7/20%Monthly2015-10-24 05:03
http://letsdiscgolf.com/2015/10/24/146027/mallard-lake-in-yuba-city-ca/20%Monthly2015-10-24 03:57
http://letsdiscgolf.com/2015/10/24/146020/vance-park-in-gresham-or-4/20%Monthly2015-10-24 03:08
http://letsdiscgolf.com/2015/10/24/146022/water-works-park-in-kansas-city-mo-11/20%Monthly2015-10-24 02:47
http://letsdiscgolf.com/2015/10/24/146010/pawnee-park-in-columbus-ne-3/20%Monthly2015-10-24 00:57
http://letsdiscgolf.com/2015/10/24/146012/sunrise-middle-school-dgc-in-kearney-ne-2/20%Monthly2015-10-24 00:39
http://letsdiscgolf.com/2015/10/23/146014/kelsey-scott-park-in-salisbury-nc-4/20%Monthly2015-10-23 23:46
http://letsdiscgolf.com/2015/10/23/146016/eagle-rock-dgc-in-mapleton-city-ut/20%Monthly2015-10-23 23:42
http://letsdiscgolf.com/2015/10/23/146018/kaposia-park-in-st-paul-south-st-paul-mn-8/20%Monthly2015-10-23 23:38
http://letsdiscgolf.com/2015/10/23/146004/ellis-park-in-salisbury-nc-3/20%Monthly2015-10-23 23:08
http://letsdiscgolf.com/2015/10/23/146006/mountain-pride-park-in-murrieta-ca-11/20%Monthly2015-10-23 23:00
http://letsdiscgolf.com/2015/10/23/145992/glen-helen-regional-park-dgc-in-san-bernardino-ca-2/20%Monthly2015-10-23 21:28
http://letsdiscgolf.com/2015/10/23/145994/uw-whitewater-hoffman-field-in-whitewater-wi-3/20%Monthly2015-10-23 21:11
http://letsdiscgolf.com/2015/10/23/145996/sunrise-dgc-in-citrus-heights-ca-5/20%Monthly2015-10-23 20:46
http://letsdiscgolf.com/2015/10/23/145998/ham-lake-dgc-in-ham-lake-mn-5/20%Monthly2015-10-23 20:42
http://letsdiscgolf.com/2015/10/23/145988/10232015-the-fox-coyner-springs-in-waynesboro-va-hole-info-updated/20%Monthly2016-02-27 23:09
http://letsdiscgolf.com/2015/10/23/145982/rock-spring-park-in-alton-il-6/20%Monthly2015-10-23 18:22
http://letsdiscgolf.com/2015/10/23/145984/st-louis-christian-college-in-florissant-mo-2/20%Monthly2015-10-23 18:18
http://letsdiscgolf.com/2015/10/23/145978/winton-woods-in-cincinnati-oh-2/20%Monthly2015-10-23 14:37
http://letsdiscgolf.com/2015/10/23/145972/ft-gordon-air-force-in-ft-gordon-ga/20%Monthly2015-10-23 13:30
http://letsdiscgolf.com/2015/10/23/145974/ft-gordon-army-in-ft-gordon-ga/20%Monthly2015-10-23 13:19
http://letsdiscgolf.com/2015/10/23/145967/10232015-four-mound-hawk-in-spokane-wa-course-info-updated/20%Monthly2015-10-23 05:41
http://letsdiscgolf.com/2015/10/23/145961/riverfront-dgc-in-lawrence-ks-4/20%Monthly2015-10-23 03:37
http://letsdiscgolf.com/2015/10/23/145963/rice-park-in-topeka-ks/20%Monthly2015-10-23 02:53
http://letsdiscgolf.com/2015/10/23/145958/visionquest-in-cedar-mn-39/20%Monthly2015-10-23 01:34
http://letsdiscgolf.com/2015/10/22/145949/monroeville-park-in-monroeville-pa-4/20%Monthly2015-10-22 22:41
http://letsdiscgolf.com/2015/10/22/145947/kiwanis-dgc-in-goldsboro-nc-7/20%Monthly2015-10-22 20:01
http://letsdiscgolf.com/2015/10/22/145941/va-du-mar-park-in-boiling-springs-sc-5/20%Monthly2015-10-22 17:41
http://letsdiscgolf.com/2015/10/22/145906/williams-day-camp-in-wilson-nc-4/20%Monthly2015-10-22 16:58
http://letsdiscgolf.com/2015/10/22/145908/high-bridge-park-dgc-in-spokane-wa-7/20%Monthly2015-10-22 16:56
http://letsdiscgolf.com/2015/10/22/145910/stimpi-ridge-in-spokane-wa/20%Monthly2015-10-22 16:51
http://letsdiscgolf.com/2015/10/22/145912/adelaide-park-in-fond-du-lac-wi-3/20%Monthly2015-10-22 16:48
http://letsdiscgolf.com/2015/10/22/145914/triangle-sports-area-in-green-bay-wi-4/20%Monthly2015-10-22 16:44
http://letsdiscgolf.com/2015/10/22/145916/southwoods-park-in-des-moines-ia-3/20%Monthly2015-10-22 16:40
http://letsdiscgolf.com/2015/10/22/145918/grandview-park-in-des-moines-ia-6/20%Monthly2015-10-22 16:34
http://letsdiscgolf.com/2015/10/22/145920/pickard-park-in-indianola-ia-2/20%Monthly2015-10-22 16:30
http://letsdiscgolf.com/2015/10/22/145922/lewis-club-park-in-colfax-ia-4/20%Monthly2015-10-22 16:24
http://letsdiscgolf.com/2015/10/22/145924/greystone-woods-in-morris-plains-nj-13/20%Monthly2015-10-22 16:00
http://letsdiscgolf.com/2015/10/22/145926/greenwood-meadows-dgc-in-warren-nj-2/20%Monthly2015-10-22 15:40
http://letsdiscgolf.com/2015/10/22/145899/prairie-city-park-in-prairie-city-ia-2/20%Monthly2015-10-22 15:12
http://letsdiscgolf.com/2015/10/22/145901/chimney-rock-dgc-in-bridgewater-nj-4/20%Monthly2015-10-22 15:12
http://letsdiscgolf.com/2015/10/22/145891/prides-creek-park-in-petersburg-in-7/20%Monthly2015-10-22 05:54
http://letsdiscgolf.com/2015/10/22/145893/tyger-river-in-reidville-sc-16/20%Monthly2015-10-22 04:39
http://letsdiscgolf.com/2015/10/22/145885/rollin-ridge-in-reedsville-wi-57/20%Monthly2015-10-22 03:52
http://letsdiscgolf.com/2015/10/22/145887/pipeline-dgc-in-spartanburg-sc-12/20%Monthly2015-10-22 03:24
http://letsdiscgolf.com/2015/10/22/172386/10212015-lloyd-park-in-calgary-ab-course-info-updated-2/20%Monthly2015-10-22 02:08
http://letsdiscgolf.com/2015/10/22/145882/10212015-lloyd-park-in-calgary-ab-course-info-updated/20%Monthly2016-03-17 21:39
http://letsdiscgolf.com/2015/10/22/145875/stubbs-park-dgc-in-centerville-oh/20%Monthly2015-10-22 02:07
http://letsdiscgolf.com/2015/10/22/145877/st-louis-christian-college-in-florissant-mo/20%Monthly2015-10-22 01:56
http://letsdiscgolf.com/2015/10/22/145879/gateway-hills-park-carroll-marty-dgc-in-ames-ia-3/20%Monthly2015-10-22 01:43
http://letsdiscgolf.com/2015/10/22/145871/tyler-state-park-west-in-newtown-pa-8/20%Monthly2015-10-22 01:04
http://letsdiscgolf.com/2015/10/22/145873/tyler-state-park-east-in-newtown-pa-8/20%Monthly2015-10-22 00:38
http://letsdiscgolf.com/2015/10/22/145866/ewing-park-in-des-moines-ia/20%Monthly2015-10-22 00:28
http://letsdiscgolf.com/2015/10/22/145868/mchose-park-in-boone-ia/20%Monthly2015-10-22 00:19
http://letsdiscgolf.com/2015/10/21/145861/the-claytons-in-maryville-tn-2/20%Monthly2015-10-21 21:03
http://letsdiscgolf.com/2015/10/21/145859/beech-hill-park-in-sackville-nb-4/20%Monthly2015-10-21 16:42
http://letsdiscgolf.com/2015/10/21/145854/bucksnort-dgc-in-pine-co-36/20%Monthly2015-10-21 16:06
http://letsdiscgolf.com/2015/10/21/145850/10212015-boundary-waters-park-in-douglasville-ga-course-info-updated/20%Monthly2017-01-23 03:50
http://letsdiscgolf.com/2015/10/21/145844/arrowhead-park-in-wilmington-nc-11/20%Monthly2015-10-21 13:57
http://letsdiscgolf.com/2015/10/21/145846/south-park-dgc-in-junction-city-ks/20%Monthly2015-10-21 13:19
http://letsdiscgolf.com/2015/10/21/145841/discgolf-park-glandorf-in-glandorf-germany/20%Monthly2015-10-21 11:40
http://letsdiscgolf.com/2015/10/21/145838/10212015-lola-valley-in-redford-mi-new-photos-uploaded/20%Monthly2016-05-04 23:19
http://letsdiscgolf.com/2015/10/21/145836/elon-park-eager-beaver-in-charlotte-nc-5/20%Monthly2015-10-21 04:55
http://letsdiscgolf.com/2015/10/21/145832/blue-valley-park-short-course-in-kansas-city-mo/20%Monthly2015-10-21 03:34
http://letsdiscgolf.com/2015/10/21/145834/hidden-valley-park-in-kansas-city-mo-3/20%Monthly2015-10-21 02:51
http://letsdiscgolf.com/2015/10/21/145828/10202015-everett-field-park-dgc-in-newark-oh-hole-info-updated/20%Monthly2015-12-21 19:50
http://letsdiscgolf.com/2015/10/21/145824/greenway-dgc-in-beaverton-or-9/20%Monthly2015-10-21 00:11
http://letsdiscgolf.com/2015/10/21/145826/holts-summit-dgc-in-holts-summit-mo/20%Monthly2015-10-21 00:10
http://letsdiscgolf.com/2015/10/20/145818/cranbury-park-in-norwalk-ct-9/20%Monthly2015-10-20 22:20
http://letsdiscgolf.com/2015/10/20/145814/linesville-park-in-white-haven-pa-10/20%Monthly2015-10-20 20:55
http://letsdiscgolf.com/2015/10/20/145810/10202015-chinhinta-park-dgc-in-montevideo-mn-new-file-uploaded/20%Monthly2016-11-12 22:02
http://letsdiscgolf.com/2015/10/20/145805/trophy-club-park-in-trophy-club-tx-10/20%Monthly2015-10-20 15:50
http://letsdiscgolf.com/2015/10/20/145807/liberty-university-east-in-lynchburg-va/20%Monthly2015-10-20 15:07
http://letsdiscgolf.com/2015/10/20/148723/usdgc2015-playlist/20%Monthly2015-10-20 14:34
http://letsdiscgolf.com/2015/10/20/145796/renaissance-park-pro-players-in-charlotte-nc-2/20%Monthly2015-10-20 13:46
http://letsdiscgolf.com/2015/10/20/145800/10202015-teutopolis-dgc-in-teutopolis-il-hole-info-updated/20%Monthly2015-10-20 12:11
http://letsdiscgolf.com/2015/10/20/145794/out-yonder-country-club-in-jacksonville-fl-12/20%Monthly2015-10-20 10:47
http://letsdiscgolf.com/2015/10/20/145786/oak-park-in-wichita-ks-6/20%Monthly2015-10-20 03:22
http://letsdiscgolf.com/2015/10/19/145778/brown-county-country-club-in-nashville-in-2/20%Monthly2015-10-19 23:19
http://letsdiscgolf.com/2015/10/19/145780/treasure-cove-dgc-in-council-bluffs-ia-3/20%Monthly2015-10-19 22:37
http://letsdiscgolf.com/2015/10/19/145782/hawk-hollow-in-spotsylvania-va-2/20%Monthly2015-10-19 22:08
http://letsdiscgolf.com/2015/10/19/145774/aspen-park-in-bellevue-ne-4/20%Monthly2015-10-19 20:28
http://letsdiscgolf.com/2015/10/19/145762/clearwaterpleasant-lake-in-annandale-mn-5/20%Monthly2015-10-19 17:11
http://letsdiscgolf.com/2015/10/19/145764/dickson-dgc-in-dickson-tn-8/20%Monthly2015-10-19 17:07
http://letsdiscgolf.com/2015/10/19/145766/visionquest-in-cedar-mn-38/20%Monthly2015-10-19 17:06
http://letsdiscgolf.com/2015/10/19/145753/domarringen-in-uppsala-uppland-sweden/20%Monthly2015-10-19 14:26
http://letsdiscgolf.com/2015/10/19/145757/shore-acres-park-in-saugatuck-mi-7/20%Monthly2015-10-19 14:20
http://letsdiscgolf.com/2015/10/19/145759/buhl-park-in-hermitage-pa-10/20%Monthly2015-10-19 13:31
http://letsdiscgolf.com/2015/10/19/145745/tatsuumi-no-mori-kaihin-park-in-koto-ku-tokyo-japan-3/20%Monthly2015-10-19 13:17
http://letsdiscgolf.com/2015/10/19/145749/10192015-brgerpark-braunschweig-in-braunschweig-germany-hole-info-updated/20%Monthly2016-05-20 12:03
http://letsdiscgolf.com/2015/10/19/145741/peace-community-park-in-bradenton-fl-3/20%Monthly2015-10-19 11:27
http://letsdiscgolf.com/2015/10/19/145743/st-hans-dgb-in-lund-sweden/20%Monthly2015-10-19 11:25
http://letsdiscgolf.com/2015/10/19/146571/2015-steady-ed-tour-with-the-norcal-championships/20%Monthly2015-10-19 11:18
http://letsdiscgolf.com/2015/10/19/145739/rend-lake-college-in-ina-il-2/20%Monthly2015-10-19 05:06
http://letsdiscgolf.com/2015/10/19/145730/dog-island-golf-in-red-bluff-ca-3/20%Monthly2015-10-19 04:28
http://letsdiscgolf.com/2015/10/19/145732/anderson-river-park-in-anderson-ca/20%Monthly2015-10-19 03:51
http://letsdiscgolf.com/2015/10/19/145734/brighton-high-school-in-brighton-mi-2/20%Monthly2015-10-19 03:51
http://letsdiscgolf.com/2015/10/19/145722/little-banita-in-nacogdoches-tx-4/20%Monthly2015-10-19 02:55
http://letsdiscgolf.com/2015/10/19/145724/sacramento-river-rv-park-in-redding-ca-8/20%Monthly2015-10-19 02:50
http://letsdiscgolf.com/2015/10/19/145719/10182015-minot-air-force-base-in-minot-nd-new-photos-uploaded/20%Monthly2015-10-19 03:41
http://letsdiscgolf.com/2015/10/19/145712/fair-park-in-childress-tx/20%Monthly2015-10-19 01:12
http://letsdiscgolf.com/2015/10/19/154562/gordon-lake-dgc-in-iowa-park-tx-4-2/20%Monthly2015-10-19 00:42
http://letsdiscgolf.com/2015/10/19/145714/gordon-lake-dgc-in-iowa-park-tx-4/20%Monthly2015-10-19 00:42
http://letsdiscgolf.com/2015/10/19/145716/camenisch-park-the-hylands-in-federal-heights-denver-co-2/20%Monthly2015-10-19 00:36
http://letsdiscgolf.com/2015/10/19/145699/the-quarry-golf-course-in-brooksville-fl-4/20%Monthly2015-10-19 00:28
http://letsdiscgolf.com/2015/10/18/145701/camp-tecumseh-in-pittstown-nj/20%Monthly2015-10-18 23:03
http://letsdiscgolf.com/2015/10/18/145703/the-dock-in-aurora-co/20%Monthly2015-10-18 22:52
http://letsdiscgolf.com/2015/10/18/145691/10182015-the-quotdockquot-in-aurora-co-new-photos-uploaded/20%Monthly2016-01-21 18:38
http://letsdiscgolf.com/2015/10/18/145697/10182015-evansville-dgc-in-evansville-mn-new-photos-uploaded/20%Monthly2015-12-03 01:10
http://letsdiscgolf.com/2015/10/18/145685/visionquest-in-cedar-mn-37/20%Monthly2015-10-18 20:55
http://letsdiscgolf.com/2015/10/18/145687/lake-creek-village-apartments-in-edwards-co/20%Monthly2015-10-18 20:38
http://letsdiscgolf.com/2015/10/18/145689/yadkin-county-park-the-outback-in-yadkinville-nc/20%Monthly2015-10-18 19:48
http://letsdiscgolf.com/2015/10/18/145678/illinois-institute-of-tech-dgc-in-chicago-il-5/20%Monthly2015-10-18 18:15
http://letsdiscgolf.com/2015/10/18/145674/lions-club-dgc-in-rolla-mo-3/20%Monthly2015-10-18 15:59
http://letsdiscgolf.com/2015/10/18/145666/10182015-trilogy-school-dgc-in-gainesville-fl-course-info-updated/20%Monthly2017-02-20 04:57
http://letsdiscgolf.com/2015/10/18/145668/10182015-sun-n-fun-rv-resort-in-sarasota-fl-course-info-updated/20%Monthly2016-04-04 03:28
http://letsdiscgolf.com/2015/10/18/145670/10182015-peace-community-park-in-bradenton-fl-course-info-updated/20%Monthly2017-01-29 00:09
http://letsdiscgolf.com/2015/10/18/145672/10182015-florida-state-university-reservation-in-tallahassee-fl-course-info-updated/20%Monthly2015-10-18 15:11
http://letsdiscgolf.com/2015/10/18/145663/locks-approach-dgc-in-cascade-locks-or-4/20%Monthly2015-10-18 11:44
http://letsdiscgolf.com/2015/10/18/145658/regency-community-park-in-sacramento-ca-3/20%Monthly2015-10-18 09:41
http://letsdiscgolf.com/2015/10/18/145660/payne-park-in-sarasota-fl-6/20%Monthly2015-10-18 09:39
http://letsdiscgolf.com/2015/10/18/145653/the-claytons-in-maryville-tn/20%Monthly2015-10-18 04:54
http://letsdiscgolf.com/2015/10/18/145655/churchville-6-in-churchville-md-3/20%Monthly2015-10-18 03:04
http://letsdiscgolf.com/2015/10/18/145649/10172015-ellsworth-dgc-in-ellsworth-wi-new-photos-uploaded/20%Monthly2016-01-27 13:53
http://letsdiscgolf.com/2015/10/18/145647/10172015-dr-lawless-park-in-vandalia-mi-hole-info-updated/20%Monthly2016-12-21 03:02
http://letsdiscgolf.com/2015/10/18/145643/east-roswell-park-in-roswell-ga-11/20%Monthly2015-10-18 00:02
http://letsdiscgolf.com/2015/10/17/145637/blue-mountain-skyline-park-in-danielsville-pa-2/20%Monthly2015-10-17 21:47
http://letsdiscgolf.com/2015/10/17/145639/choctaw-creek-park-in-choctaw-ok-6/20%Monthly2015-10-17 21:32
http://letsdiscgolf.com/2015/10/17/145629/ontelaunee-park-in-new-tripoli-pa-2/20%Monthly2015-10-17 21:14
http://letsdiscgolf.com/2015/10/17/145631/joseph-davis-state-park-in-lewiston-ny-6/20%Monthly2015-10-17 20:00
http://letsdiscgolf.com/2015/10/17/145624/veterans-memorial-park-in-mt-vernon-il-3/20%Monthly2015-10-17 18:40
http://letsdiscgolf.com/2015/10/17/145616/camden-park-ii-in-milan-il-9/20%Monthly2015-10-17 15:55
http://letsdiscgolf.com/2015/10/17/145627/december-deadline-for-innovation-grant-round-2/20%Monthly2015-10-17 13:43
http://letsdiscgolf.com/2015/10/17/145613/yulga-in-stevens-point-wi-6/20%Monthly2015-10-17 13:24
http://letsdiscgolf.com/2015/10/17/145610/north-water-tower-park-in-sarasota-fl-6/20%Monthly2015-10-17 12:41
http://letsdiscgolf.com/2015/10/17/145607/live-oak-park-red-in-ingleside-tx-4/20%Monthly2015-10-17 08:03
http://letsdiscgolf.com/2015/10/17/145602/beaverfork-dgc-in-conway-ar-9/20%Monthly2015-10-17 05:34
http://letsdiscgolf.com/2015/10/17/145595/10162015-magnolia-park-in-st-martinville-la-course-info-updated/20%Monthly2017-03-05 23:27
http://letsdiscgolf.com/2015/10/17/145604/the-oaks-in-mokena-il-4/20%Monthly2015-10-17 04:17
http://letsdiscgolf.com/2015/10/17/145590/bassett-creek-park-in-minneapolis-crystal-mn-3/20%Monthly2015-10-17 01:18
http://letsdiscgolf.com/2015/10/17/145586/highbridge-hills-the-bear-in-highbridge-wi-2/20%Monthly2015-10-17 00:35
http://letsdiscgolf.com/2015/10/16/145588/willow-valley-in-richmond-ri/20%Monthly2015-10-16 22:30
http://letsdiscgolf.com/2015/10/16/145567/lafreniere-park-in-metairie-la-8/20%Monthly2015-10-16 22:08
http://letsdiscgolf.com/2015/10/16/145579/10162015-clearview-elementary-school-in-brogue-pa-course-info-updated/20%Monthly2015-10-16 22:06
http://letsdiscgolf.com/2015/10/16/145569/maple-hill-dgc-in-leicester-ma-19/20%Monthly2015-10-16 22:03
http://letsdiscgolf.com/2015/10/16/145571/veterans-affairs-park-in-des-moines-ia/20%Monthly2015-10-16 22:01
http://letsdiscgolf.com/2015/10/16/145573/shelby-road-baptist-church-dgc-in-shelby-mi/20%Monthly2015-10-16 21:57
http://letsdiscgolf.com/2015/10/16/145575/cedar-sentinels-in-aurora-in-7/20%Monthly2015-10-16 21:41
http://letsdiscgolf.com/2015/10/16/145577/arsenal-on-the-charles-in-watertown-ma-4/20%Monthly2015-10-16 21:34
http://letsdiscgolf.com/2015/10/16/145583/10162015-veterans-affairs-park-in-des-moines-ia-course-info-updated/20%Monthly2017-02-18 18:57
http://letsdiscgolf.com/2015/10/16/145563/clearview-elementary-school-in-brogue-pa/20%Monthly2015-10-16 21:14
http://letsdiscgolf.com/2015/10/16/145565/nasa-dgc-in-houston-tx-2/20%Monthly2015-10-16 20:53
http://letsdiscgolf.com/2015/10/16/145560/the-masters-dgc-in-plainfield-in-5/20%Monthly2015-10-16 18:36
http://letsdiscgolf.com/2015/10/16/145555/10162015-williamson-town-park-in-williamson-ny-hole-info-updated/20%Monthly2016-04-25 17:21
http://letsdiscgolf.com/2015/10/16/145550/sloterpark-in-amsterdam-netherlands-2/20%Monthly2015-10-16 16:48
http://letsdiscgolf.com/2015/10/16/145552/bryant-lake-park-in-minneapolis-eden-prairie-mn-14/20%Monthly2015-10-16 15:59
http://letsdiscgolf.com/2015/10/16/145548/bird-bay-golf-course-in-venice-fl-4/20%Monthly2015-10-16 12:03
http://letsdiscgolf.com/2015/10/16/145538/enterprise-community-park-in-redding-ca/20%Monthly2015-10-16 06:39
http://letsdiscgolf.com/2015/10/16/145529/10162015-the-nazz-in-orange-tx-new-file-uploaded/20%Monthly2015-12-03 08:08
http://letsdiscgolf.com/2015/10/16/145540/creekside-park-in-salt-lake-city-ut-10/20%Monthly2015-10-16 05:17
http://letsdiscgolf.com/2015/10/16/145542/cottonwood-creek-park-in-colorado-springs-co-8/20%Monthly2015-10-16 04:44
http://letsdiscgolf.com/2015/10/16/145520/arctic-springs-dgc-in-galesville-wi/20%Monthly2015-10-16 03:09
http://letsdiscgolf.com/2015/10/16/145522/hudson-springs-park-in-hudson-oh-5/20%Monthly2015-10-16 02:56
http://letsdiscgolf.com/2015/10/16/145516/branch-nature-park-in-goliad-tx/20%Monthly2015-10-16 01:40
http://letsdiscgolf.com/2015/10/16/145518/seabourne-creek-dgc-in-rosenberg-tx-7/20%Monthly2015-10-16 01:32
http://letsdiscgolf.com/2015/10/16/145536/disc-golf-utopia-in-ethiopia/20%Monthly2015-10-16 01:15
http://letsdiscgolf.com/2015/10/15/145512/10152015-tipton-city-park-in-tipton-ia-course-info-updated/20%Monthly2015-10-15 21:17
http://letsdiscgolf.com/2015/10/15/145514/10152015-emerald-park-in-mesa-az-hole-info-updated/20%Monthly2015-11-02 20:00
http://letsdiscgolf.com/2015/10/15/145506/robbins-island-dgc-in-willmar-mn-2/20%Monthly2015-10-15 21:02
http://letsdiscgolf.com/2015/10/15/145508/herman-c-michael-park-in-bishop-ga-4/20%Monthly2015-10-15 20:12
http://letsdiscgolf.com/2015/10/15/145510/bowden-dgc-in-macon-ga-3/20%Monthly2015-10-15 20:01
http://letsdiscgolf.com/2015/10/15/145500/oregon-park-in-marietta-ga-11/20%Monthly2015-10-15 19:49
http://letsdiscgolf.com/2015/10/15/145502/malabar-disc-golf-in-malabar-fl-3/20%Monthly2015-10-15 18:52
http://letsdiscgolf.com/2015/10/15/145498/10152015-lake-loramie-state-park-in-minster-oh-hole-info-updated/20%Monthly2016-07-04 04:25
http://letsdiscgolf.com/2015/10/15/145494/lake-loramie-state-park-in-minster-oh/20%Monthly2015-10-15 18:10
http://letsdiscgolf.com/2015/10/15/145496/lakewood-hills-in-st-paul-white-bear-lake-mn-4/20%Monthly2015-10-15 17:25
http://letsdiscgolf.com/2015/10/15/145492/estero-dgc-in-estero-fl-9/20%Monthly2015-10-15 13:18
http://letsdiscgolf.com/2015/10/15/145490/the-grassman-in-ravenna-oh-3/20%Monthly2015-10-15 11:46
http://letsdiscgolf.com/2015/10/15/145488/palo-cedro-community-park-in-palo-cedro-ca/20%Monthly2015-10-15 10:14
http://letsdiscgolf.com/2015/10/15/145483/prairie-center-park-in-olathe-ks-4/20%Monthly2015-10-15 06:18
http://letsdiscgolf.com/2015/10/15/145485/simpson-university-in-redding-ca/20%Monthly2015-10-15 05:52
http://letsdiscgolf.com/2015/10/15/145481/10142015-river-city-community-church-in-selma-tx-new-photos-uploaded/20%Monthly2015-10-15 04:16
http://letsdiscgolf.com/2015/10/15/145477/buhl-park-in-hermitage-pa-9/20%Monthly2015-10-15 03:37
http://letsdiscgolf.com/2015/10/15/145479/central-united-methodist-church-dgc-in-lenoir-city-tn-2/20%Monthly2015-10-15 03:22
http://letsdiscgolf.com/2015/10/15/145473/zephyr-cove-park-in-zephyr-cove-nv-7/20%Monthly2015-10-15 02:22
http://letsdiscgolf.com/2015/10/15/145475/mosquito-lake-state-park-in-cortland-oh/20%Monthly2015-10-15 02:04
http://letsdiscgolf.com/2015/10/15/145466/cleveland-lake-in-belton-mo-3/20%Monthly2015-10-15 00:47
http://letsdiscgolf.com/2015/10/15/145468/buckeye-in-redding-ca-3/20%Monthly2015-10-15 00:35
http://letsdiscgolf.com/2015/10/15/145470/wickham-park-in-manchester-ct-13/20%Monthly2015-10-15 00:29
http://letsdiscgolf.com/2015/10/14/145454/university-of-ob-in-weed-ca-5/20%Monthly2015-10-14 21:53
http://letsdiscgolf.com/2015/10/14/145456/huckleberry-dgc-in-hannibal-mo-3/20%Monthly2015-10-14 21:41
http://letsdiscgolf.com/2015/10/14/145458/milligan-park-dgc-in-crawfordsville-in-5/20%Monthly2015-10-14 21:23
http://letsdiscgolf.com/2015/10/14/145460/westfield-lions-dgc-in-westfield-in-2/20%Monthly2015-10-14 21:14
http://letsdiscgolf.com/2015/10/14/145462/friends-of-punderson-dgc-in-newbury-oh-5/20%Monthly2015-10-14 21:13
http://letsdiscgolf.com/2015/10/14/145444/lookout-park-in-tega-cay-sc-2/20%Monthly2015-10-14 20:55
http://letsdiscgolf.com/2015/10/14/145446/mcloughlin-middle-school-in-medford-or-2/20%Monthly2015-10-14 20:51
http://letsdiscgolf.com/2015/10/14/145448/fayette-city-park-dgc-in-fayette-mo-2/20%Monthly2015-10-14 20:38
http://letsdiscgolf.com/2015/10/14/145450/brown-county-country-club-in-nashville-in/20%Monthly2015-10-14 19:58
http://letsdiscgolf.com/2015/10/14/145432/brent-hambrick-memorial-dgc-in-columbus-oh-9/20%Monthly2015-10-14 19:15
http://letsdiscgolf.com/2015/10/14/145434/voyageur-park-in-pine-city-mn-2/20%Monthly2015-10-14 19:00
http://letsdiscgolf.com/2015/10/14/145439/10142015-wildlife-prairie-state-park-dgc-in-hanna-city-peoria-il-new-photos-uploaded/20%Monthly2017-01-20 17:55
http://letsdiscgolf.com/2015/10/14/145425/10142015-dubois-town-park-in-dubois-wy-course-info-updated/20%Monthly2016-05-31 17:30
http://letsdiscgolf.com/2015/10/14/145429/visionquest-in-cedar-mn-36/20%Monthly2015-10-14 16:25
http://letsdiscgolf.com/2015/10/14/145427/10142015-brown-county-country-club-in-nashville-in-hole-info-updated/20%Monthly2017-03-14 18:27
http://letsdiscgolf.com/2015/10/14/145423/visionquest-in-cedar-mn-35/20%Monthly2015-10-14 15:41
http://letsdiscgolf.com/2015/10/14/145414/bonita-springs-recreation-center-in-bonita-springs-fl-4/20%Monthly2015-10-14 12:24
http://letsdiscgolf.com/2015/10/14/145407/10142015-los-arboles-disc-golf-learning-course-in-marina-ca-hole-info-updated/20%Monthly2015-10-16 05:35
http://letsdiscgolf.com/2015/10/14/145405/southern-oregon-va-in-white-city-or/20%Monthly2015-10-14 05:58
http://letsdiscgolf.com/2015/10/14/145397/millsite-dgc-in-myrtle-creek-or-3/20%Monthly2015-10-14 05:17
http://letsdiscgolf.com/2015/10/14/145399/beaver-ranch-in-conifer-co-25/20%Monthly2015-10-14 05:01
http://letsdiscgolf.com/2015/10/14/145391/bijou-community-park-in-south-lake-tahoe-ca-7/20%Monthly2015-10-14 00:48
http://letsdiscgolf.com/2015/10/14/145393/harmon-amp-santa-fe-parks-dgc-in-prairie-village-ks-6/20%Monthly2015-10-14 00:40
http://letsdiscgolf.com/2015/10/13/145386/10132015-douglas-community-disc-golf-course-in-dougals-wy-course-info-updated/20%Monthly2015-10-20 03:51
http://letsdiscgolf.com/2015/10/13/145373/camelot-dgc-in-lomira-wi/20%Monthly2015-10-13 22:03
http://letsdiscgolf.com/2015/10/13/145375/hennepin-tech-brooklyn-park-in-brooklyn-park-mn/20%Monthly2015-10-13 21:57
http://letsdiscgolf.com/2015/10/13/145377/north-tahoe-regional-park-in-tahoe-vista-ca-4/20%Monthly2015-10-13 21:20
http://letsdiscgolf.com/2015/10/13/145383/10132015-camelot-dgc-in-lomira-wi-new-file-uploaded/20%Monthly2016-10-26 13:49
http://letsdiscgolf.com/2015/10/13/145379/mam-army-depot-dgc-in-memphis-tn-3/20%Monthly2015-10-13 21:05
http://letsdiscgolf.com/2015/10/13/145369/west-brook-park-in-dewitt-ia-2/20%Monthly2015-10-13 19:10
http://letsdiscgolf.com/2015/10/13/167790/10132015-wilson-college-dgc-in-chambersburg-pa-course-info-updated-2/20%Monthly2015-10-13 18:46
http://letsdiscgolf.com/2015/10/13/145366/10132015-wilson-college-dgc-in-chambersburg-pa-course-info-updated/20%Monthly2015-10-13 18:46
http://letsdiscgolf.com/2015/10/13/145371/clarence-darrow-park-youngs-run-in-warren-oh-6/20%Monthly2015-10-13 17:55
http://letsdiscgolf.com/2015/10/13/145354/schultz-park-in-long-grove-ia-2/20%Monthly2015-10-13 16:41
http://letsdiscgolf.com/2015/10/13/145351/oakland-dgc-in-oakland-or-5/20%Monthly2015-10-13 14:41
http://letsdiscgolf.com/2015/10/13/145346/10132015-southeastern-dgc-in-wake-forest-nc-course-info-updated/20%Monthly2016-12-29 22:55
http://letsdiscgolf.com/2015/10/13/145339/10132015-manly-dgc-in-manly-ia-new-photos-uploaded/20%Monthly2015-10-13 13:57
http://letsdiscgolf.com/2015/10/13/145337/bay-oaks-dgc-in-fort-myers-beach-fl/20%Monthly2015-10-13 11:50
http://letsdiscgolf.com/2015/10/13/145328/minet-dgc-in-independence-or-3/20%Monthly2015-10-13 06:13
http://letsdiscgolf.com/2015/10/13/145330/verdugo-hills-dgc-in-tujunga-ca-4/20%Monthly2015-10-13 05:41
http://letsdiscgolf.com/2015/10/13/145332/grand-coulee-dgc-in-grand-coulee-wa/20%Monthly2015-10-13 05:13
http://letsdiscgolf.com/2015/10/13/145334/golden-gate-park-dgc-in-san-francisco-ca-24/20%Monthly2015-10-13 04:44
http://letsdiscgolf.com/2015/10/13/145319/lenexa-dgc-in-lenexa-ks-11/20%Monthly2015-10-13 03:07
http://letsdiscgolf.com/2015/10/13/145321/visionquest-in-cedar-mn-34/20%Monthly2015-10-13 02:49
http://letsdiscgolf.com/2015/10/13/145314/acorn-dgc-in-roseville-mn-7/20%Monthly2015-10-13 02:19
http://letsdiscgolf.com/2015/10/13/145316/glenwood-park-in-princeton-wv-10/20%Monthly2015-10-13 01:57
http://letsdiscgolf.com/2015/10/13/145308/10122015-camp-dakota-in-scotts-mills-or-course-info-updated/20%Monthly2015-10-13 00:57
http://letsdiscgolf.com/2015/10/12/145304/boyne-mountain-in-boyne-falls-mi-3/20%Monthly2015-10-12 23:43
http://letsdiscgolf.com/2015/10/12/145306/armfield-civic-center-in-pilot-mountain-nc-11/20%Monthly2015-10-12 23:40
http://letsdiscgolf.com/2015/10/12/145300/community-park-in-east-jordan-mi-4/20%Monthly2015-10-12 22:54
http://letsdiscgolf.com/2015/10/12/145302/plymouth-creek-in-minneapolis-plymouth-mn-6/20%Monthly2015-10-12 22:32
http://letsdiscgolf.com/2015/10/12/145294/canaan-riverbend-dgc-in-rock-hill-sc-3/20%Monthly2015-10-12 20:44
http://letsdiscgolf.com/2015/10/12/145297/10122015-the-claytons-in-maryville-tn-course-info-updated/20%Monthly2017-03-21 16:10
http://letsdiscgolf.com/2015/10/12/145290/woodland-park-in-collinsville-il-6/20%Monthly2015-10-12 19:43
http://letsdiscgolf.com/2015/10/12/145292/mohawk-dgc-in-greenfield-in-2/20%Monthly2015-10-12 19:22
http://letsdiscgolf.com/2015/10/12/145284/grassy-creek-dgc-in-new-whiteland-in-6/20%Monthly2015-10-12 18:26
http://letsdiscgolf.com/2015/10/12/145286/dennis-frandsen-park-in-rush-city-mn/20%Monthly2015-10-12 17:59
http://letsdiscgolf.com/2015/10/12/145288/big-walnut-sports-park-in-greencastle-in-2/20%Monthly2015-10-12 17:37
http://letsdiscgolf.com/2015/10/12/145268/dunegant-park-in-florissant-mo-7/20%Monthly2015-10-12 17:25
http://letsdiscgolf.com/2015/10/12/145270/dunegant-park-in-florissant-mo-8/20%Monthly2015-10-12 17:12
http://letsdiscgolf.com/2015/10/12/145272/hanover-community-center-in-bethlehem-pa/20%Monthly2015-10-12 17:11
http://letsdiscgolf.com/2015/10/12/145274/mascoutah-scheve-park-in-mascoutah-il-3/20%Monthly2015-10-12 17:09
http://letsdiscgolf.com/2015/10/12/145276/horner-park-in-lebanon-il-4/20%Monthly2015-10-12 17:05
http://letsdiscgolf.com/2015/10/12/145278/johnson-road-park-in-germantown-tn-4/20%Monthly2015-10-12 16:48
http://letsdiscgolf.com/2015/10/12/145280/sweet-arrow-lake-dgc-in-pine-grove-pa-9/20%Monthly2015-10-12 16:42
http://letsdiscgolf.com/2015/10/12/145264/n-ft-myers-community-park-in-n-ft-myers-fl/20%Monthly2015-10-12 12:05
http://letsdiscgolf.com/2015/10/12/145262/pendaries-village-dgc-in-rociada-nm-3/20%Monthly2015-10-12 10:27
http://letsdiscgolf.com/2015/10/12/145259/intel-jones-farm-in-hillsboro-or/20%Monthly2015-10-12 07:42
http://letsdiscgolf.com/2015/10/12/145254/bicentennial-dgc-in-crowley-tx-7/20%Monthly2015-10-12 05:11
http://letsdiscgolf.com/2015/10/12/145256/10122015-stubbs-park-dgc-in-centerville-oh-new-file-uploaded/20%Monthly2016-03-11 13:11
http://letsdiscgolf.com/2015/10/12/145246/avalanche-preserve-in-boyne-city-mi-3/20%Monthly2015-10-12 04:11
http://letsdiscgolf.com/2015/10/12/145248/royalston-fish-amp-game-in-south-royalston-ma-2/20%Monthly2015-10-12 03:03
http://letsdiscgolf.com/2015/10/12/145250/kent-state-university-trumbull-in-warren-oh-4/20%Monthly2015-10-12 02:52
http://letsdiscgolf.com/2015/10/12/145240/greenbelt-park-in-carrollton-tx-4/20%Monthly2015-10-12 01:45
http://letsdiscgolf.com/2015/10/12/145219/frog-rock-in-austell-ga-4/20%Monthly2015-10-12 00:39
http://letsdiscgolf.com/2015/10/12/145221/brooktrails-in-willits-ca-2/20%Monthly2015-10-12 00:28
http://letsdiscgolf.com/2015/10/12/145223/koa-campground-in-willits-ca-2/20%Monthly2015-10-12 00:11
http://letsdiscgolf.com/2015/10/12/145236/10112015-winsor-park-in-north-bend-or-course-info-updated/20%Monthly2016-08-20 23:33
http://letsdiscgolf.com/2015/10/12/145238/10112015-mingus-park-in-coos-bay-or-course-info-updated/20%Monthly2015-10-12 00:00
http://letsdiscgolf.com/2015/10/11/145225/konen-creek-in-little-river-ks-2/20%Monthly2015-10-11 23:50
http://letsdiscgolf.com/2015/10/11/145227/chaindragon-in-freeport-fl-6/20%Monthly2015-10-11 23:40
http://letsdiscgolf.com/2015/10/11/145229/anderson-pond-in-niceville-fl-2/20%Monthly2015-10-11 23:30
http://letsdiscgolf.com/2015/10/11/145216/10112015-east-union-school-dgc-in-afton-ia-course-info-updated/20%Monthly2016-11-20 18:23
http://letsdiscgolf.com/2015/10/11/145211/ferry-park-in-fort-walton-beach-fl-4/20%Monthly2015-10-11 23:19
http://letsdiscgolf.com/2015/10/11/145213/hudson-springs-park-in-hudson-oh-4/20%Monthly2015-10-11 22:06
http://letsdiscgolf.com/2015/10/11/145205/reedy-creek-park-in-charlotte-nc-8/20%Monthly2015-10-11 20:03
http://letsdiscgolf.com/2015/10/11/145202/lincoln-park-in-kenosha-wi-5/20%Monthly2015-10-11 18:10
http://letsdiscgolf.com/2015/10/11/145196/10112015-the-ram-in-bluefield-va-hole-info-updated/20%Monthly2015-11-06 05:50
http://letsdiscgolf.com/2015/10/11/145188/round-4-summary-grand-slam-activated/20%Monthly2015-10-11 03:33
http://letsdiscgolf.com/2015/10/11/145191/throw-pink-has-bright-turnout-in-rain/20%Monthly2015-10-11 03:15
http://letsdiscgolf.com/2015/10/11/145173/firestine-park-in-findlay-oh/20%Monthly2015-10-11 03:07
http://letsdiscgolf.com/2015/10/11/145175/angry-apple-dgc-in-darien-center-ny-5/20%Monthly2015-10-11 02:37
http://letsdiscgolf.com/2015/10/11/145177/grand-geneva-resort-amp-spa-in-lake-geneva-wi/20%Monthly2015-10-11 02:30
http://letsdiscgolf.com/2015/10/11/145194/csu-vs-augusta-for-deans-cup-final/20%Monthly2015-10-11 02:23
http://letsdiscgolf.com/2015/10/11/145183/10102015-anthony-lake-dgc-in-anthony-ks-hole-info-updated/20%Monthly2015-10-11 02:15
http://letsdiscgolf.com/2015/10/11/145179/hunter-farm-in-grove-city-pa-4/20%Monthly2015-10-11 02:07
http://letsdiscgolf.com/2015/10/11/145181/bishop-park-in-bryant-ar/20%Monthly2015-10-11 01:52
http://letsdiscgolf.com/2015/10/11/145171/white-oak-park-in-dallas-ga-7/20%Monthly2015-10-11 01:07
http://letsdiscgolf.com/2015/10/11/145169/chavez-ridge-dgc-at-elysian-in-los-angeles-ca-8/20%Monthly2015-10-11 00:16
http://letsdiscgolf.com/2015/10/10/145166/10102015-camp-mennoscah-in-murdock-ks-new-link-added/20%Monthly2016-11-20 20:34
http://letsdiscgolf.com/2015/10/10/145163/nature-park-in-rexburg-id-6/20%Monthly2015-10-10 21:50
http://letsdiscgolf.com/2015/10/10/145161/freeman-park-dgc-in-idaho-falls-id-5/20%Monthly2015-10-10 20:49
http://letsdiscgolf.com/2015/10/10/145155/addison-oaks-county-park-in-leonard-mi-6/20%Monthly2015-10-10 16:17
http://letsdiscgolf.com/2015/10/10/145157/leverich-park-in-vancouver-wa-7/20%Monthly2015-10-10 15:33
http://letsdiscgolf.com/2015/10/10/145153/recreation-park-in-raymore-mo-7/20%Monthly2015-10-10 14:25
http://letsdiscgolf.com/2015/10/10/145147/rock-river-park-in-fort-atkinson-wi/20%Monthly2015-10-10 05:45
http://letsdiscgolf.com/2015/10/10/145143/tocobaga-dgc-in-st-petersburg-fl-10/20%Monthly2015-10-10 04:40
http://letsdiscgolf.com/2015/10/10/145145/adler-park-in-libertyville-il-5/20%Monthly2015-10-10 04:04
http://letsdiscgolf.com/2015/10/10/145151/mcbeths-grand-slam-hopes-still-alive/20%Monthly2015-10-10 00:48
http://letsdiscgolf.com/2015/10/09/145138/gordon-holton-memorial-dgc-in-delaware-oh-4/20%Monthly2015-10-09 22:40
http://letsdiscgolf.com/2015/10/09/145129/fewell-park-in-rock-hill-sc/20%Monthly2015-10-09 21:19
http://letsdiscgolf.com/2015/10/09/145131/moraine-rotary-dgc-in-moraine-oh-4/20%Monthly2015-10-09 21:15
http://letsdiscgolf.com/2015/10/09/145135/1092015-waterloo-dgc-in-waterloo-or-course-info-updated/20%Monthly2015-10-09 20:05
http://letsdiscgolf.com/2015/10/09/145121/forsyth-park-in-forsyth-il-2/20%Monthly2015-10-09 17:51
http://letsdiscgolf.com/2015/10/09/145123/1092015-buckingham-golf-course-in-kelseyville-ca-hole-info-updated/20%Monthly2015-12-24 23:09
http://letsdiscgolf.com/2015/10/09/145119/throw-pink-returns-to-rock-hill/20%Monthly2015-10-09 14:01
http://letsdiscgolf.com/2015/10/09/145113/1092015-hartman-green-dgc-in-olds-ab-course-info-updated/20%Monthly2015-10-09 13:08
http://letsdiscgolf.com/2015/10/09/145102/forsyth-park-in-forsyth-il/20%Monthly2015-10-09 05:02
http://letsdiscgolf.com/2015/10/08/145082/the-valley-dgc-in-inver-grove-heights-mn-8/20%Monthly2015-10-08 23:00
http://letsdiscgolf.com/2015/10/08/145084/kaposia-park-in-st-paul-south-st-paul-mn-7/20%Monthly2015-10-08 22:55
http://letsdiscgolf.com/2015/10/08/145086/carrollton-park-dgc-in-bridgeton-st-louis-mo-11/20%Monthly2015-10-08 22:17
http://letsdiscgolf.com/2015/10/08/174118/visionquest-in-cedar-mn-33-2/20%Monthly2015-10-08 21:55
http://letsdiscgolf.com/2015/10/08/145080/visionquest-in-cedar-mn-33/20%Monthly2015-10-08 21:55
http://letsdiscgolf.com/2015/10/08/145094/doss-and-sexton-tied-for-the-lead/20%Monthly2015-10-08 21:06
http://letsdiscgolf.com/2015/10/08/145074/tiger-springs-dgc-in-hollister-mo/20%Monthly2015-10-08 18:14
http://letsdiscgolf.com/2015/10/08/145069/sahm-park-in-indianapolis-in-3/20%Monthly2015-10-08 17:57
http://letsdiscgolf.com/2015/10/08/145071/the-pines-dgc-in-mandeville-la-8/20%Monthly2015-10-08 17:19
http://letsdiscgolf.com/2015/10/08/145077/edge-links-disc-golf-with-next-generation/20%Monthly2015-10-08 15:38
http://letsdiscgolf.com/2015/10/08/145053/huntington-beach-central-park-in-huntington-beach-ca-11/20%Monthly2015-10-08 06:36
http://letsdiscgolf.com/2015/10/08/145055/liberty-lake-business-park-in-liberty-lake-wa-3/20%Monthly2015-10-08 06:08
http://letsdiscgolf.com/2015/10/08/145046/lower-peninsula-park-in-moses-lake-wa/20%Monthly2015-10-08 05:07
http://letsdiscgolf.com/2015/10/08/145048/wiese-park-in-perry-ia/20%Monthly2015-10-08 04:53
http://letsdiscgolf.com/2015/10/08/145043/community-park-in-channahon-il-5/20%Monthly2015-10-08 03:31
http://letsdiscgolf.com/2015/10/07/145022/bradford-park-in-huntersville-nc-16/20%Monthly2015-10-07 23:54
http://letsdiscgolf.com/2015/10/07/145028/1072015-hennepin-tech-brooklyn-park-in-brooklyn-park-mn-hole-info-updated/20%Monthly2016-05-21 22:52
http://letsdiscgolf.com/2015/10/07/145024/the-beacon-dgc-in-barker-ny/20%Monthly2015-10-07 23:28
http://letsdiscgolf.com/2015/10/07/145032/1072015-cypress-preserve-park-in-sunrise-fl-hole-info-updated/20%Monthly2015-11-15 23:50
http://letsdiscgolf.com/2015/10/07/145026/lefleurs-bluff-state-park-in-jackson-ms-3/20%Monthly2015-10-07 23:02
http://letsdiscgolf.com/2015/10/07/145012/1072015-mullen-dgc-in-mullen-ne-course-info-updated/20%Monthly2015-10-07 22:25
http://letsdiscgolf.com/2015/10/07/145020/veterans-park-in-arlington-tx-11/20%Monthly2015-10-07 22:17
http://letsdiscgolf.com/2015/10/07/145006/lake-mendocino-south-in-ukiah-ca-3/20%Monthly2015-10-07 21:20
http://letsdiscgolf.com/2015/10/07/145008/krops-crops-farm-in-great-falls-va/20%Monthly2015-10-07 21:09
http://letsdiscgolf.com/2015/10/07/167175/krops-crops-farm-in-great-falls-va-2/20%Monthly2015-10-07 21:09
http://letsdiscgolf.com/2015/10/07/145010/acorn-dgc-in-roseville-mn-6/20%Monthly2015-10-07 20:42
http://letsdiscgolf.com/2015/10/07/145035/doss-takes-early-lead/20%Monthly2015-10-07 20:17
http://letsdiscgolf.com/2015/10/07/145004/b-b-owen-park-in-dallas-tx-8/20%Monthly2015-10-07 20:01
http://letsdiscgolf.com/2015/10/07/144991/sauna-dgc-in-owego-ny/20%Monthly2015-10-07 12:01
http://letsdiscgolf.com/2015/10/07/144984/deerfield-community-park-in-deerfield-wi-2/20%Monthly2015-10-07 04:28
http://letsdiscgolf.com/2015/10/07/144978/eglin-afb-in-eglin-afb-fl-2/20%Monthly2015-10-07 02:54
http://letsdiscgolf.com/2015/10/07/144987/the-beginning-of-the-end-of-the-2015-season/20%Monthly2015-10-07 00:52
http://letsdiscgolf.com/2015/10/06/144971/morley-field-in-san-diego-ca-15/20%Monthly2015-10-06 23:47
http://letsdiscgolf.com/2015/10/06/144969/disc-golf-world-tour-2016-teaser/20%Monthly2015-10-06 23:10
http://letsdiscgolf.com/2015/10/06/144960/flying-armadillo-gold-in-san-marcos-tx-2/20%Monthly2015-10-06 22:11
http://letsdiscgolf.com/2015/10/06/144962/hole-in-the-sky-dgc-in-eagle-co-4/20%Monthly2015-10-06 21:40
http://letsdiscgolf.com/2015/10/06/144964/gypsum-creek-dgc-in-gypsum-co-3/20%Monthly2015-10-06 21:24
http://letsdiscgolf.com/2015/10/06/144956/1062015-renaissance-park-pro-players-in-charlotte-nc-course-info-updated/20%Monthly2017-03-14 14:21
http://letsdiscgolf.com/2015/10/06/144949/thousand-trails-leavenworth-in-leavenworth-wa-3/20%Monthly2015-10-06 20:10
http://letsdiscgolf.com/2015/10/06/144951/blue-ribbon-pines-dgc-in-east-bethel-mn-28/20%Monthly2015-10-06 20:00
http://letsdiscgolf.com/2015/10/06/144947/1062015-crown-college-in-st-bonifacius-mn-new-photos-uploaded/20%Monthly2015-10-06 19:08
http://letsdiscgolf.com/2015/10/06/144974/another-success-at-smugglers-notch/20%Monthly2015-10-06 18:48
http://letsdiscgolf.com/2015/10/06/144941/highland-park-in-joliet-il-6/20%Monthly2015-10-06 18:47
http://letsdiscgolf.com/2015/10/06/144943/gypsum-creek-dgc-in-gypsum-co-2/20%Monthly2015-10-06 18:05
http://letsdiscgolf.com/2015/10/06/144945/hole-in-the-sky-dgc-in-eagle-co-3/20%Monthly2015-10-06 17:58
http://letsdiscgolf.com/2015/10/06/144953/renaissance-park-pro-players-in-charlotte-nc/20%Monthly2015-10-06 16:22
http://letsdiscgolf.com/2015/10/06/144938/renaissance-park-gold-in-charlotte-nc/20%Monthly2015-10-06 16:22
http://letsdiscgolf.com/2015/10/06/144929/stony-creek-buckhorn-south-in-shelby-township-mi/20%Monthly2015-10-06 04:20
http://letsdiscgolf.com/2015/10/06/144931/innova-vs-discmania-part-1-the-wager/20%Monthly2015-10-06 02:47
http://letsdiscgolf.com/2015/10/06/144924/1052015-discfunctional-acres-in-pennfield-mi-course-info-updated/20%Monthly2015-12-31 21:15
http://letsdiscgolf.com/2015/10/06/144914/1052015-kennel-lake-in-morton-il-course-info-updated/20%Monthly2015-10-06 02:16
http://letsdiscgolf.com/2015/10/06/144909/b-b-owen-park-in-dallas-tx-7/20%Monthly2015-10-06 01:27
http://letsdiscgolf.com/2015/10/06/144911/usdgc-2015-monday-qualifying-interviews/20%Monthly2015-10-06 01:17
http://letsdiscgolf.com/2015/10/05/144906/cloman-park-in-pagosa-springs-co-3/20%Monthly2015-10-05 23:13
http://letsdiscgolf.com/2015/10/05/144901/the-cedars-in-fate-tx-11/20%Monthly2015-10-05 22:39
http://letsdiscgolf.com/2015/10/05/144894/low-gap-park-in-ukiah-ca-3/20%Monthly2015-10-05 21:15
http://letsdiscgolf.com/2015/10/05/144896/bingo-park-in-randall-mn-2/20%Monthly2015-10-05 21:07
http://letsdiscgolf.com/2015/10/05/144887/handyman-ace-hardware-dgc-in-fairborn-oh-10/20%Monthly2015-10-05 19:32
http://letsdiscgolf.com/2015/10/05/144885/rideau-acres-in-kingston-on/20%Monthly2015-10-05 18:06
http://letsdiscgolf.com/2015/10/05/144899/guiness-adds-new-world-record-for-disc-golf/20%Monthly2015-10-05 17:53
http://letsdiscgolf.com/2015/10/05/144880/1052015-tally-hills-in-monticello-fl-course-info-updated/20%Monthly2015-10-06 21:05
http://letsdiscgolf.com/2015/10/05/144878/clark-park-in-elk-grove-village-il-3/20%Monthly2015-10-05 14:27
http://letsdiscgolf.com/2015/10/05/144874/tsalteshi-trails-dgc-in-soldotna-ak-2/20%Monthly2015-10-05 10:45
http://letsdiscgolf.com/2015/10/05/144876/kincaid-park-dgc-in-anchorage-ak-4/20%Monthly2015-10-05 09:58
http://letsdiscgolf.com/2015/10/05/144872/pier-park-in-portland-or-17/20%Monthly2015-10-05 06:07
http://letsdiscgolf.com/2015/10/05/144863/chavez-ridge-dgc-at-elysian-in-los-angeles-ca-7/20%Monthly2015-10-05 04:27
http://letsdiscgolf.com/2015/10/05/144865/two-rivers-park-in-nashville-tn-2/20%Monthly2015-10-05 03:38
http://letsdiscgolf.com/2015/10/05/144855/warlick-academy-disc-golf-in-gastonia-nc/20%Monthly2015-10-05 02:13
http://letsdiscgolf.com/2015/10/05/144857/sandy-point-dgc-in-boise-id/20%Monthly2015-10-05 01:52
http://letsdiscgolf.com/2015/10/05/144859/visionquest-in-cedar-mn-32/20%Monthly2015-10-05 01:23
http://letsdiscgolf.com/2015/10/05/144851/1042015-dundee-mill-and-park-in-dundee-wi-new-photos-uploaded/20%Monthly2015-10-05 00:49
http://letsdiscgolf.com/2015/10/04/144845/taylor-mountain-dgc-in-santa-rosa-ca-14/20%Monthly2015-10-04 21:41
http://letsdiscgolf.com/2015/10/04/161949/granbury-city-dgc-in-granbury-tx-4-11/20%Monthly2015-10-04 21:31
http://letsdiscgolf.com/2015/10/04/144847/granbury-city-dgc-in-granbury-tx-4/20%Monthly2015-10-04 21:31
http://letsdiscgolf.com/2015/10/04/161940/granbury-city-dgc-in-granbury-tx-4-2/20%Monthly2015-10-04 21:31
http://letsdiscgolf.com/2015/10/04/161941/granbury-city-dgc-in-granbury-tx-4-3/20%Monthly2015-10-04 21:31
http://letsdiscgolf.com/2015/10/04/161942/granbury-city-dgc-in-granbury-tx-4-4/20%Monthly2015-10-04 21:31
http://letsdiscgolf.com/2015/10/04/161943/granbury-city-dgc-in-granbury-tx-4-5/20%Monthly2015-10-04 21:31
http://letsdiscgolf.com/2015/10/04/161944/granbury-city-dgc-in-granbury-tx-4-6/20%Monthly2015-10-04 21:31
http://letsdiscgolf.com/2015/10/04/161945/granbury-city-dgc-in-granbury-tx-4-7/20%Monthly2015-10-04 21:31
http://letsdiscgolf.com/2015/10/04/161946/granbury-city-dgc-in-granbury-tx-4-8/20%Monthly2015-10-04 21:31
http://letsdiscgolf.com/2015/10/04/161947/granbury-city-dgc-in-granbury-tx-4-9/20%Monthly2015-10-04 21:31
http://letsdiscgolf.com/2015/10/04/161948/granbury-city-dgc-in-granbury-tx-4-10/20%Monthly2015-10-04 21:31
http://letsdiscgolf.com/2015/10/04/144849/calumet-lake-dgc-in-calumet-mi-3/20%Monthly2015-10-04 21:21
http://letsdiscgolf.com/2015/10/04/144843/1042015-primland-in-meadows-of-dan-va-new-link-added/20%Monthly2015-10-04 21:06
http://letsdiscgolf.com/2015/10/04/144834/mast-park-in-santee-ca-4/20%Monthly2015-10-04 19:25
http://letsdiscgolf.com/2015/10/04/144836/davidson-college-in-davidson-nc-2/20%Monthly2015-10-04 18:54
http://letsdiscgolf.com/2015/10/04/144825/1042015-tombstone-mountain-in-elizabethton-tn-hole-info-updated/20%Monthly2015-10-04 18:42
http://letsdiscgolf.com/2015/10/04/144827/1042015-buffalo-mtn-christian-camp-dgc-in-johnson-city-tn-hole-info-updated/20%Monthly2015-10-04 18:32
http://letsdiscgolf.com/2015/10/04/144838/heymann-park-in-lafayette-la-5/20%Monthly2015-10-04 18:05
http://letsdiscgolf.com/2015/10/04/144830/1042015-borrowed-time-dgc-in-yadkinville-nc-new-link-added/20%Monthly2015-10-04 18:03
http://letsdiscgolf.com/2015/10/04/144832/1042015-pim-farms-in-darlington-sc-course-info-updated/20%Monthly2015-10-04 18:02
http://letsdiscgolf.com/2015/10/04/144819/cb-eller-elementary-school-in-elkin-nc-2/20%Monthly2015-10-04 17:55
http://letsdiscgolf.com/2015/10/04/144821/easterlin-park-in-ft-lauderdale-fl-6/20%Monthly2015-10-04 17:47
http://letsdiscgolf.com/2015/10/04/144815/smuttynose-brewing-dgc-in-hampton-nh-2/20%Monthly2015-10-04 16:57
http://letsdiscgolf.com/2015/10/04/144817/jackson-elementary-school-in-sheboygan-wi-2/20%Monthly2015-10-04 16:11
http://letsdiscgolf.com/2015/10/04/144804/covell-greenbelt-in-davis-ca/20%Monthly2015-10-04 14:29
http://letsdiscgolf.com/2015/10/04/144806/prairie-center-park-in-olathe-ks-3/20%Monthly2015-10-04 14:07
http://letsdiscgolf.com/2015/10/04/144808/lakeside-hills-dgc-birdland-in-olathe-ks-7/20%Monthly2015-10-04 13:56
http://letsdiscgolf.com/2015/10/04/144810/lenexa-dgc-in-lenexa-ks-10/20%Monthly2015-10-04 13:32
http://letsdiscgolf.com/2015/10/04/144796/1042015-leflore-horseman-training-ground-in-howe-ok-course-info-updated/20%Monthly2015-10-04 05:40
http://letsdiscgolf.com/2015/10/04/144802/homestead-high-school-in-mequon-wi-2/20%Monthly2015-10-04 04:54
http://letsdiscgolf.com/2015/10/04/144786/champoeg-state-park-in-st-paul-or-13/20%Monthly2015-10-04 04:15
http://letsdiscgolf.com/2015/10/04/144788/lions-wilderness-dgc-in-farmington-nm-5/20%Monthly2015-10-04 03:19
http://letsdiscgolf.com/2015/10/04/144790/slayter-creek-park-in-anna-tx-6/20%Monthly2015-10-04 02:48
http://letsdiscgolf.com/2015/10/04/144792/majestic-enchantment-dgc-in-turley-nm/20%Monthly2015-10-04 02:35
http://letsdiscgolf.com/2015/10/04/144794/lustig-park-in-janesville-wi-3/20%Monthly2015-10-04 02:34
http://letsdiscgolf.com/2015/10/04/144779/san-juan-college-hhpc-in-farmington-nm/20%Monthly2015-10-04 01:38
http://letsdiscgolf.com/2015/10/04/144921/2015-united-states-disc-golf-championship-2015-trailer/20%Monthly2015-10-04 01:31
http://letsdiscgolf.com/2015/10/04/169566/2015-united-states-disc-golf-championship-2015-trailer-2/20%Monthly2015-10-04 01:31
http://letsdiscgolf.com/2015/10/03/144767/sandy-point-disc-golf-course-in-boise-id/20%Monthly2015-10-03 23:24
http://letsdiscgolf.com/2015/10/03/144773/1032015-sandy-point-disc-golf-course-in-boise-id-new-file-uploaded/20%Monthly2015-10-05 03:16
http://letsdiscgolf.com/2015/10/03/169056/the-canyons-in-lockport-il-16-2/20%Monthly2015-10-03 23:05
http://letsdiscgolf.com/2015/10/03/144769/the-canyons-in-lockport-il-16/20%Monthly2015-10-03 23:05
http://letsdiscgolf.com/2015/10/03/144771/doc-cramer-dgc-in-manahawkin-nj-5/20%Monthly2015-10-03 22:15
http://letsdiscgolf.com/2015/10/03/144758/el-jardn-sagrado-in-orosi-costa-rica/20%Monthly2015-10-03 18:41
http://letsdiscgolf.com/2015/10/03/144755/1032015-gilbert-park-dgc-in-altamont-il-course-info-updated/20%Monthly2016-10-16 01:49
http://letsdiscgolf.com/2015/10/03/144747/1032015-shane-kelly-park-in-oviedo-fl-new-photos-uploaded/20%Monthly2016-03-23 07:12
http://letsdiscgolf.com/2015/10/03/144751/beaverfork-dgc-in-conway-ar-8/20%Monthly2015-10-03 16:29
http://letsdiscgolf.com/2015/10/03/144753/kraken-dgc-in-semora-nc-8/20%Monthly2015-10-03 16:00
http://letsdiscgolf.com/2015/10/03/144745/beaverfork-dgc-in-conway-ar-7/20%Monthly2015-10-03 14:41
http://letsdiscgolf.com/2015/10/03/144741/sherwood-island-state-park-in-westport-ct-4/20%Monthly2015-10-03 13:07
http://letsdiscgolf.com/2015/10/03/144738/bethel-dgc-in-winston-salem-nc-3/20%Monthly2015-10-03 12:50
http://letsdiscgolf.com/2015/10/03/144727/beaverfork-dgc-in-conway-ar-6/20%Monthly2015-10-03 09:55
http://letsdiscgolf.com/2015/10/03/144729/1032015-camp-tecumseh-in-pittstown-nj-course-info-updated/20%Monthly2016-10-31 16:37
http://letsdiscgolf.com/2015/10/03/144724/humboldt-river-dgc-in-elko-nv-5/20%Monthly2015-10-03 07:28
http://letsdiscgolf.com/2015/10/03/144723/humboldt-river-dgc-in-elko-nv-4/20%Monthly2015-10-03 07:28
http://letsdiscgolf.com/2015/10/03/144718/old-city-park-dgc-in-moab-ut-5/20%Monthly2015-10-03 02:33
http://letsdiscgolf.com/2015/10/03/144714/msu-dgc-in-east-lansing-mi-3/20%Monthly2015-10-03 02:29
http://letsdiscgolf.com/2015/10/03/144735/the-disc-golf-guy-vlog-337-2015-steady-ed-headrick-award-winner-nate-doss/20%Monthly2015-10-03 00:19
http://letsdiscgolf.com/2015/10/03/144712/gypsum-creek-dgc-in-gypsum-co/20%Monthly2015-10-03 00:15
http://letsdiscgolf.com/2015/10/02/144704/hole-in-the-sky-dgc-in-eagle-co-2/20%Monthly2015-10-02 21:41
http://letsdiscgolf.com/2015/10/02/144706/elk-run-dgc-in-elk-point-sd/20%Monthly2015-10-02 20:55
http://letsdiscgolf.com/2015/10/02/144708/smuttynose-brewing-dgc-in-hampton-nh/20%Monthly2015-10-02 20:39
http://letsdiscgolf.com/2015/10/02/144695/kit-carson-park-dgc-in-escondido-ca-9/20%Monthly2015-10-02 20:27
http://letsdiscgolf.com/2015/10/02/144697/slayter-creek-park-in-anna-tx-5/20%Monthly2015-10-02 20:21
http://letsdiscgolf.com/2015/10/02/144699/bud-pell-ross-farm-in-silverdale-wa-9/20%Monthly2015-10-02 19:37
http://letsdiscgolf.com/2015/10/02/144701/dr-george-w-hilliard-park-in-beloit-wi-2/20%Monthly2015-10-02 19:03
http://letsdiscgolf.com/2015/10/02/144688/mountain-crest-park-in-las-vegas-nv-4/20%Monthly2015-10-02 18:46
http://letsdiscgolf.com/2015/10/02/144690/creve-coeur-dgc-in-creve-coeur-il-2/20%Monthly2015-10-02 18:15
http://letsdiscgolf.com/2015/10/02/144682/schumaker-pond-in-salisbury-md-4/20%Monthly2015-10-02 13:59
http://letsdiscgolf.com/2015/10/02/144678/1022015-shorewood-park-in-shorewood-il-course-info-updated/20%Monthly2015-11-06 23:33
http://letsdiscgolf.com/2015/10/02/144675/1022015-smuttynose-brewing-dgc-in-hampton-nh-new-photos-uploaded/20%Monthly2015-10-30 20:30
http://letsdiscgolf.com/2015/10/02/144671/roots-dgc-in-salt-lake-city-ut-5/20%Monthly2015-10-02 05:09
http://letsdiscgolf.com/2015/10/02/144665/1012015-willow-grove-community-dgc-in-nashville-tn-new-link-added/20%Monthly2015-10-13 14:19
http://letsdiscgolf.com/2015/10/02/144673/bristol-park-in-waverly-oh-3/20%Monthly2015-10-02 04:30
http://letsdiscgolf.com/2015/10/02/144659/reserves-park-dgc-in-hamilton-oh/20%Monthly2015-10-02 04:11
http://letsdiscgolf.com/2015/10/02/144661/dr-george-w-hilliard-park-in-beloit-wi/20%Monthly2015-10-02 03:00
http://letsdiscgolf.com/2015/10/01/144657/turner-park-in-grand-prairie-tx-10/20%Monthly2015-10-01 23:31
http://letsdiscgolf.com/2015/10/01/144654/shorewood-park-in-shorewood-il-2/20%Monthly2015-10-01 23:06
http://letsdiscgolf.com/2015/10/01/144650/pine-view-park-in-washington-ut-4/20%Monthly2015-10-01 20:51
http://letsdiscgolf.com/2015/10/01/144631/crystal-lake-park-in-beaver-dam-wi-4/20%Monthly2015-10-01 18:56
http://letsdiscgolf.com/2015/10/01/144641/1012015-north-arkansas-college-in-harrison-ar-hole-info-updated/20%Monthly2015-10-03 13:14
http://letsdiscgolf.com/2015/10/01/144633/valley-springs-park-in-durham-nc-4/20%Monthly2015-10-01 18:43
http://letsdiscgolf.com/2015/10/01/144635/oak-grove-hahamongna-park-in-pasadena-ca-9/20%Monthly2015-10-01 18:37
http://letsdiscgolf.com/2015/10/01/144637/goodson-middle-school-in-cypress-tx/20%Monthly2015-10-01 18:07
http://letsdiscgolf.com/2015/10/01/144639/wild-haven-north-in-manton-mi-4/20%Monthly2015-10-01 17:36
http://letsdiscgolf.com/2015/10/01/144627/1012015-reserves-park-dgc-in-hamilton-oh-course-info-updated/20%Monthly2016-05-12 15:02
http://letsdiscgolf.com/2015/10/01/191696/pdga-joins-battle-against-breast-cancer-2/20%Monthly2015-10-01 16:18
http://letsdiscgolf.com/2015/10/01/144693/pdga-joins-battle-against-breast-cancer/20%Monthly2015-10-01 16:18
http://letsdiscgolf.com/2015/10/01/144648/who-are-disc-golfers/20%Monthly2015-10-01 15:16
http://letsdiscgolf.com/2015/10/01/144620/1012015-schmitten-dgc-in-zell-am-see-austria-new-link-added/20%Monthly2015-10-01 09:29
http://letsdiscgolf.com/2015/10/01/144610/plymouth-creek-in-minneapolis-plymouth-mn-5/20%Monthly2015-10-01 03:25
http://letsdiscgolf.com/2015/10/01/144612/alimagnet-lake-park-dgc-in-apple-valley-mn-2/20%Monthly2015-10-01 03:15
http://letsdiscgolf.com/2015/10/01/144614/disc-fall-creek-in-lawrence-in-9/20%Monthly2015-10-01 02:18
http://letsdiscgolf.com/2015/10/01/144608/finnon-reservoir-dgc-in-placerville-ca-7/20%Monthly2015-10-01 01:20